Location: Arran
(51.9410°N, 101.7372°W)
Time: 08:14:21
(UTC+00:00)

BEESAT - Visible Passes

Search period start: 03 December 2023 00:00
Search period end: 13 December 2023 00:00
Orbit: 696 x 702 km, 98.5° (Epoch: 02 December)

Date Brightness Start Highest point End Pass type
(mag) Time Alt. Az. Time Alt. Az. Time Alt. Az.
03 Dec ? 13:17:40 10° NE 13:18:20 10° NE 13:18:59 10° NE visible
04 Dec ? 13:56:04 10° ESE 13:59:27 20° NE 14:02:52 10° N visible
06 Dec ? 13:42:36 10° E 13:45:26 16° NE 13:48:15 10° NNE visible
08 Dec ? 13:29:25 10° ENE 13:31:25 13° NE 13:33:26 10° NNE visible
11 Dec ? 13:55:10 10° E 13:58:30 19° NE 14:01:49 10° NNE visible
